Location: New Frontier Mobile Home Park
(32.8448°N, 116.9675°W)
Time: 23:02:09
(UTC+00:00)

BREEZE-M (TANK) - Pass Details

Date: 14 July 2020
Orbit: 316 x 17582 km, 49.5° (Epoch: 05 August)

Event Time Altitude Azimuth Distance (km) Brightness Sun altitude
Rises 03:58:03 0° 209° (SSW) 2,123 5.5 -11.7°
Reaches altitude 10° 03:59:27 10° 200° (SSW) 1,456 4.5 -12.0°
Maximum altitude 04:02:05 44° 125° (SE) 850 3.0 -12.4°
Drops below altitude 10° 04:08:53 10° 54° (NE) 3,752 6.6 -13.6°
Sets 04:15:03 0° 51° (NE) 6,508 7.8 -14.6°
